Regional Weather Roundup
Issued by NWS Albany, NY

Home | Current Version | Previous Version | Graphics & Text | Print | Product List | Glossary On
Versions: 1 2 3 4 5 6 7 8 9 10 11 12 13 14 15 16 17 18 19 20 21 22 23 24 25 26 27 28 29 30 31 32 33 34 35 36 37 38 39 40 41 42 43 44 45 46 47 48 49 50
000
ASUS41 KALY 200810
RWRALY

NEW YORK STATE HOURLY WEATHER ROUNDUP
NATIONAL WEATHER SERVICE ALBANY NY
400 AM EDT MON OCT 20 2014

NOTE: "FAIR" INDICATES FEW OR NO CLOUDS BELOW 12,000 FEET WITH NO
SIGNIFICANT WEATHER AND/OR NO OBSTRUCTIONS TO VISIBILITY.

NYZ032-033-038>043-046>054-057>066-NYZ062>081-200900-
EAST


CITY           SKY/WX    TMP DP  RH WIND       PRES   REMARKS
ALBANY         MOCLDY    35  29  78 CALM      30.04S
GLENS FALLS    CLEAR     31  26  82 S5        30.02S WCI  26
POUGHKEEPSIE   PTCLDY    34  30  85 CALM      30.06R
MONTGOMERY     MOCLDY    35  28  75 W10       30.06R WCI  27
WHITE PLAINS   MOCLDY    36  30  79 CALM      30.05R
ISLIP          PTCLDY    36  29  75 W3        30.05F
NEW YORK CITY  MOCLDY    44  29  55 W9        30.08S
CENTRAL PARK   PTCLDY    43  28  55 VRB3      30.10S
$$

NYZ005>009-017-018-044>046-055-056-200900-
CENTRAL


CITY           SKY/WX    TMP DP  RH WIND       PRES   REMARKS
FULTON         MOCLDY    38  33  82 S6        30.00F WCI  33
SYRACUSE       MOCLDY    41  33  73 CALM      30.03S
ROME           MOCLDY    33  31  92 SE3       30.03F
ELMIRA         PTCLDY    30  29  96 CALM      30.03F
BINGHAMTON     CLOUDY    34  28  79 SW5       30.00F WCI  30
MONTICELLO     MOCLDY    30  27  86 W6        30.03S WCI  24
$$

NYZ026>034-041>043-200900-
NORTH


CITY           SKY/WX    TMP DP  RH WIND       PRES   REMARKS
WATERTOWN      PTCLDY    34  27  75 CALM      29.99F
FORT DRUM      NOT AVBL
MASSENA        CLEAR     31  28  89 CALM      30.01S
SARANAC LAKE   CLEAR     24  22  91 SW3       29.93F
PLATTSBURGH    PTCLDY    30  27  88 W3        29.99F
$$

NYZ001>004-010>016-019>021-200900-
WEST


CITY           SKY/WX    TMP DP  RH WIND       PRES   REMARKS
NIAGARA FALLS  CLOUDY    43  38  82 CALM      29.96F
BUFFALO        CLOUDY    44  38  79 S3        29.97F
DUNKIRK        CLOUDY    45  35  68 S10       29.98F
JAMESTOWN      CLOUDY    36  30  80 S3        29.99S
WELLSVILLE     MOCLDY    38  30  73 SW5       29.99F WCI  34
ROCHESTER      CLOUDY    41  35  79 SW6       29.99F
PENN YAN       CLOUDY    40  35  83 SW8       30.00F WCI  34
$$

             KEY
       WCI = WIND CHILL INDEX
       VSB = VISIBILITY
       HX  = HEAT INDEX
$$


USA.gov is the U.S. government's official web portal to all federal, state and local government web resources and services.